Weather History for Medford, WI

Change the Weather History Date:

Sunday, December 16, 2012

  Actual Average Record
Temperature  
Mean Temperature 30 °F -  
Max Temperature 35 °F 26 °F 48 °F (1952)
Min Temperature 26 °F 9 °F -15 °F (1951)
Degree Days  
Heating Degree Days 34    
Moisture  
Dew Point 32 °F    
Average Humidity 96    
Maximum Humidity 100    
Minimum Humidity 93    
Precipitation  
Precipitation 0.00 in - - ()
Sea Level Pressure  
Sea Level Pressure 29.56 in    
Wind  
Wind Speed 4 mph (WNW)    
Max Wind Speed 12 mph    
Max Gust Speed 17 mph    
Visibility 4 miles    
Events Fog , Rain , Snow    
Averages and records for this station are not official NWS values.
T = Trace of Precipitation, MM = Missing Value Source: NWS Daily Summary

Daily Weather History Graph

Daily Weather History Graph

Search for Another Location

Airport:

Trip Planner

Search our weather history database for the weather conditions in past years. The results will help you decide how hot, cold, wet, or windy it might be!

Date:

Astronomy

Dec. 16, 2012 Rise Set
Actual Time 7:34 AM CST 4:20 PM CST
Civil Twilight 7:00 AM CST 4:54 PM CST
Nautical Twilight 6:22 AM CST 5:31 PM CST
Astronomical Twilight 5:47 AM CST 6:07 PM CST
Moon 9:59 AM CST (12/16) 8:43 PM CST (12/16)
Length of Visible Light 9h 53m
Length of Day
8h 46m
Waxing Crescent, 16% of the Moon is Illuminated
Dec 16
Waxing Crescent
Dec 19
First Quarter
Dec 28
Full
Jan 4
Last Quarter
Jan 11
New

Hourly Weather History & Observations

Time (CST) Temp. Windchill Dew Point Humidity Pressure Visibility Wind Dir Wind Speed Gust Speed Precip Events Conditions
12:15 AM 35.6 °F - 33.8 °F 93% 29.47 in 0.2 mi Calm Calm - N/A   Drizzle
12:55 AM 35.6 °F - 33.8 °F 93% 29.47 in 0.2 mi Calm Calm - N/A Fog Fog
1:15 AM 33.8 °F - 33.8 °F 100% 29.47 in 0.2 mi Calm Calm - N/A Snow Light Snow
1:35 AM 33.8 °F - 33.8 °F 100% 29.47 in 0.2 mi Calm Calm - N/A Snow Light Snow
1:55 AM 33.8 °F - 33.8 °F 100% 29.47 in 0.2 mi Calm Calm - N/A   Overcast
2:15 AM 33.8 °F - 33.8 °F 100% 29.47 in 0.2 mi Calm Calm - N/A Fog Fog
2:35 AM 33.8 °F - 33.8 °F 100% 29.47 in 0.2 mi Calm Calm - N/A Snow Light Snow
2:55 AM 33.8 °F - 33.8 °F 100% 29.47 in 0.2 mi Calm Calm - N/A   Drizzle
3:15 AM 33.8 °F - 33.8 °F 100% 29.47 in 0.2 mi Calm Calm - N/A Snow Light Snow
3:35 AM 33.8 °F - 33.8 °F 100% 29.47 in 0.2 mi Calm Calm - N/A Fog Fog
3:55 AM 33.8 °F - 33.8 °F 100% 29.48 in 0.5 mi Calm Calm - N/A   Drizzle
4:15 AM 33.8 °F - 33.8 °F 100% 29.48 in 0.5 mi Calm Calm - N/A   Drizzle
4:35 AM 33.8 °F - 33.8 °F 100% 29.49 in 0.5 mi Calm Calm - N/A   Drizzle
4:55 AM 33.8 °F - 33.8 °F 100% 29.49 in 0.5 mi Calm Calm - N/A Rain Light Rain
5:15 AM 35.6 °F 32.8 °F 33.8 °F 93% 29.49 in 0.5 mi West 3.5 mph - N/A Rain Light Rain
5:35 AM 35.6 °F 30.7 °F 33.8 °F 93% 29.49 in 0.5 mi West 5.8 mph - N/A   Light Drizzle
5:55 AM 35.6 °F 30.7 °F 33.8 °F 93% 29.50 in 2.5 mi West 5.8 mph - N/A Rain Light Rain
6:15 AM 33.8 °F 28.6 °F 33.8 °F 100% 29.50 in 4.0 mi WNW 5.8 mph - N/A Rain Light Rain
6:35 AM 33.8 °F 28.6 °F 33.8 °F 100% 29.51 in 4.0 mi WNW 5.8 mph - N/A Snow Light Snow
6:55 AM 33.8 °F 29.6 °F 32.0 °F 93% 29.51 in 4.0 mi WNW 4.6 mph - N/A Snow Light Snow
7:15 AM 33.8 °F 29.6 °F 32.0 °F 93% 29.52 in 4.0 mi West 4.6 mph - N/A Snow Light Snow
7:35 AM 33.8 °F 28.6 °F 32.0 °F 93% 29.52 in 4.0 mi West 5.8 mph - N/A Snow Light Snow
7:55 AM 33.8 °F 27.7 °F 32.0 °F 93% 29.53 in 5.0 mi West 6.9 mph - N/A Snow Light Snow
8:15 AM 33.8 °F 28.6 °F 32.0 °F 93% 29.53 in 3.0 mi WNW 5.8 mph - N/A Snow Light Snow
8:35 AM 33.8 °F 27.7 °F 32.0 °F 93% 29.54 in 3.0 mi West 6.9 mph - N/A Snow Light Snow
8:55 AM 33.8 °F 28.6 °F 32.0 °F 93% 29.54 in 7.0 mi WNW 5.8 mph - N/A Snow Light Snow
9:15 AM 33.8 °F 27.0 °F 32.0 °F 93% 29.55 in 10.0 mi WNW 8.1 mph - N/A   Overcast
9:35 AM 33.8 °F 26.4 °F 32.0 °F 93% 29.55 in 10.0 mi WNW 9.2 mph - N/A   Overcast
9:55 AM 33.8 °F 26.4 °F 32.0 °F 93% 29.56 in 10.0 mi NW 9.2 mph - N/A   Overcast
10:15 AM 33.8 °F 27.0 °F 32.0 °F 93% 29.56 in 7.0 mi WNW 8.1 mph - N/A   Overcast
10:35 AM 33.8 °F 27.0 °F 32.0 °F 93% 29.56 in 7.0 mi NW 8.1 mph - N/A   Overcast
10:55 AM 33.8 °F 26.4 °F 32.0 °F 93% 29.57 in 7.0 mi WNW 9.2 mph - N/A   Overcast
11:15 AM 33.8 °F 27.0 °F 33.8 °F 100% 29.56 in 7.0 mi WNW 8.1 mph - N/A   Overcast
11:35 AM 33.8 °F 25.8 °F 33.8 °F 100% 29.56 in 5.0 mi WNW 10.4 mph - N/A   Overcast
11:55 AM 33.8 °F 27.0 °F 33.8 °F 100% 29.56 in 7.0 mi WNW 8.1 mph - N/A   Overcast
12:35 PM 35.6 °F 28.6 °F 33.8 °F 93% 29.56 in 10.0 mi WNW 9.2 mph - N/A   Overcast
12:55 PM 35.6 °F 28.6 °F 33.8 °F 93% 29.56 in 10.0 mi WNW 9.2 mph - N/A   Overcast
1:15 PM 33.8 °F 27.0 °F 33.8 °F 100% 29.56 in 10.0 mi WNW 8.1 mph - N/A   Overcast
1:35 PM 33.8 °F 27.0 °F 33.8 °F 100% 29.56 in 10.0 mi WNW 8.1 mph - N/A   Overcast
1:55 PM 33.8 °F 26.4 °F 33.8 °F 100% 29.56 in 10.0 mi WNW 9.2 mph - N/A   Overcast
2:15 PM 33.8 °F 27.7 °F 33.8 °F 100% 29.56 in 10.0 mi WNW 6.9 mph - N/A   Overcast
2:35 PM 33.8 °F 25.8 °F 33.8 °F 100% 29.57 in 10.0 mi WNW 10.4 mph - N/A   Overcast
2:55 PM 33.8 °F 25.8 °F 33.8 °F 100% 29.57 in 10.0 mi WNW 10.4 mph - N/A   Overcast
3:15 PM 33.8 °F 26.4 °F 33.8 °F 100% 29.58 in 10.0 mi NW 9.2 mph - N/A   Overcast
3:35 PM 33.8 °F 26.4 °F 33.8 °F 100% 29.58 in 10.0 mi West 9.2 mph - N/A   Overcast
3:55 PM 33.8 °F 26.4 °F 33.8 °F 100% 29.59 in 10.0 mi West 9.2 mph - N/A   Overcast
4:15 PM 33.8 °F 26.4 °F 32.0 °F 93% 29.59 in 10.0 mi WNW 9.2 mph - N/A   Overcast
4:35 PM 33.8 °F 27.7 °F 32.0 °F 93% 29.59 in 10.0 mi WNW 6.9 mph - N/A   Overcast
4:55 PM 33.8 °F 25.8 °F 32.0 °F 93% 29.60 in 4.0 mi West 10.4 mph - N/A   Overcast
5:15 PM 33.8 °F 27.7 °F 32.0 °F 93% 29.60 in 4.0 mi WNW 6.9 mph - N/A   Overcast
5:35 PM 33.8 °F 27.7 °F 32.0 °F 93% 29.60 in 2.5 mi WNW 6.9 mph - N/A   Overcast
5:55 PM 33.8 °F 26.4 °F 32.0 °F 93% 29.61 in 0.5 mi West 9.2 mph - N/A Fog Fog
6:15 PM 32.0 °F 24.2 °F 30.2 °F 93% 29.61 in 0.5 mi West 9.2 mph - N/A Fog Fog
6:35 PM 32.0 °F 24.8 °F 30.2 °F 93% 29.62 in 0.5 mi West 8.1 mph - N/A Fog Fog
6:55 PM 32.0 °F 23.6 °F 30.2 °F 93% 29.62 in 2.5 mi West 10.4 mph - N/A   Overcast
7:15 PM 32.0 °F 23.6 °F 30.2 °F 93% 29.62 in 3.0 mi WNW 10.4 mph - N/A   Overcast
7:35 PM 32.0 °F 23.6 °F 30.2 °F 93% 29.63 in 1.0 mi West 10.4 mph - N/A   Overcast
7:55 PM 30.2 °F 20.8 °F 30.2 °F 100% 29.63 in 4.0 mi West 11.5 mph - N/A   Overcast
8:15 PM 30.2 °F 21.3 °F 28.4 °F 93% 29.63 in 5.0 mi West 10.4 mph 17.3 mph N/A   Overcast
8:35 PM 30.2 °F 21.3 °F 28.4 °F 93% 29.64 in 3.0 mi West 10.4 mph - N/A   Overcast
8:55 PM 30.2 °F 21.9 °F 28.4 °F 93% 29.64 in 3.0 mi West 9.2 mph - N/A   Overcast
9:15 PM 30.2 °F 21.9 °F 28.4 °F 93% 29.64 in 3.0 mi West 9.2 mph - N/A   Overcast
9:35 PM 30.2 °F 23.4 °F 28.4 °F 93% 29.65 in 2.5 mi WNW 6.9 mph - N/A   Overcast
9:55 PM 30.2 °F 21.3 °F 28.4 °F 93% 29.65 in 3.0 mi West 10.4 mph - N/A   Overcast
10:15 PM 28.4 °F 21.2 °F 26.6 °F 93% 29.65 in 2.5 mi West 6.9 mph - N/A   Overcast
10:35 PM 28.4 °F 20.4 °F 26.6 °F 93% 29.65 in 2.5 mi West 8.1 mph - N/A   Overcast
10:55 PM 28.4 °F 19.7 °F 26.6 °F 93% 29.65 in 3.0 mi West 9.2 mph - N/A   Overcast
11:15 PM 28.4 °F 20.4 °F 26.6 °F 93% 29.65 in 3.0 mi WNW 8.1 mph - N/A   Overcast
11:35 PM 26.6 °F 16.2 °F 24.8 °F 93% 29.65 in 4.0 mi West 11.5 mph - N/A   Overcast
11:55 PM 26.6 °F 16.2 °F 24.8 °F 93% 29.66 in 7.0 mi WNW 11.5 mph - N/A   Overcast